This is the latest recevied weather packets stored in our database for station/object KE8URB. If no packets are shown the sender has not sent any weather packets the latest 10 day(s).
| Time | Temp. | Humidity | Pressure | Rain* | Wind** | Luminosity | Snow |
|---|---|---|---|---|---|---|---|
| 1788055762 | 19.44° C | 83% | 1021.7 hPa | 0 mm | - | 0 W/m² | - |
| 1788055456 | 19.44° C | 84% | 1021.7 hPa | 0 mm | - | 0 W/m² | - |
| 1788055152 | 20° C | 84% | 1021.8 hPa | 0 mm | - | 0 W/m² | - |
| 1788054847 | 20° C | 83% | 1021.6 hPa | 0 mm | - | 0 W/m² | - |
| 1788054542 | 20° C | 81% | 1021.7 hPa | 0 mm | - | 0 W/m² | - |
| 1788054238 | 20° C | 83% | 1021.7 hPa | 0 mm | - | 0 W/m² | - |
| 1788053933 | 20° C | 82% | 1021.6 hPa | 0 mm | - | 0 W/m² | - |
| 1788053629 | 20.56° C | 82% | 1021.5 hPa | 0 mm | - | 0 W/m² | - |
| 1788053324 | 20° C | 80% | 1021.5 hPa | 0 mm | - | 0 W/m² | - |
| 1788053020 | 20.56° C | 80% | 1021.3 hPa | 0 mm | - | 0 W/m² | - |
| 1788052716 | 20.56° C | 79% | 1021.2 hPa | 0 mm | - | 0 W/m² | - |
| 1788052410 | 20.56° C | 79% | 1021.3 hPa | 0 mm | - | 0 W/m² | - |
| 1788052106 | 20.56° C | 78% | 1021.3 hPa | 0 mm | - | 0 W/m² | - |
| 1788051805 | 21.11° C | 79% | 1021.1 hPa | 0 mm | - | 0 W/m² | - |
| 1788051501 | 21.11° C | 78% | 1021.1 hPa | 0 mm | - | 0 W/m² | - |
| 1788051199 | 20.56° C | 78% | 1021.1 hPa | 0 mm | - | 0 W/m² | - |
| 1788050898 | 21.11° C | 80% | 1021.3 hPa | 0 mm | - | 0 W/m² | - |
| 1788050594 | 21.11° C | 79% | 1021.1 hPa | 0 mm | - | 0 W/m² | - |
| 1788050293 | 21.11° C | 80% | 1021.2 hPa | 0 mm | - | 0 W/m² | - |
| 1788049993 | 21.11° C | 78% | 1021.3 hPa | 0 mm | - | 0 W/m² | - |
| 1788049690 | 21.11° C | 78% | 1021.5 hPa | 0 mm | - | 0 W/m² | - |
| 1788049386 | 21.67° C | 77% | 1021.6 hPa | 0 mm | - | 0 W/m² | - |
| 1788049081 | 21.67° C | 76% | 1021.4 hPa | 0 mm | - | 0 W/m² | - |
| 1788048777 | 21.67° C | 75% | 1021.4 hPa | 0 mm | - | 0 W/m² | - |
| 1788048475 | 22.22° C | 74% | 1021.4 hPa | 0 mm | - | 0 W/m² | - |
* Rain latest hour (hover to see other rain measurements)
** Current wind speed in m/s (hover to see current wind gust speed)